Vorticity
nan nan nan nan nan nan nan nan nan nan nan nan nan nan nan nan nan nan nan nan nan nan nan nan nan nan nan nan nan nan nan nan nan nan nan nan nan nan nan nan nan nan nan nan nan nan nan nan nan nan nan nan nan nan nan nan nan nan nan nan nan nan nan nan nan nan nan nan nan nan nan nan nan nan nan nan nan nan nan nan nan nan nan nan nan nan
nan 10 7 8 14 14 8 7 8 7 8 8 7 6 8 10 10 11 11 9 9 9 8 9 8 8 6 3 2 5 7 7 7 8 9 11 11 11 10 9 8 8 8 7 8 8 9 9 10 10 11 11 11 11 11 10 9 8 8 8 8 8 8 9 9 9 9 10 11 11 11 9 9 8 8 8 7 7 7 7 8 9 10 11 13 nan
nan 10 8 8 10 11 9 8 9 8 7 7 7 7 9 11 10 9 8 8 9 10 10 9 8 8 8 4 -0 2 5 6 7 8 10 10 10 10 9 8 8 7 7 7 8 8 9 10 10 10 11 11 11 11 11 9 9 8 7 8 8 8 8 9 9 10 10 11 11 11 10 9 9 9 9 8 8 8 8 8 9 10 11 12 13 nan
nan 8 8 8 8 9 10 10 10 9 8 8 8 9 11 11 9 8 7 8 9 10 11 11 9 8 9 6 1 -1 2 5 7 8 9 10 9 9 8 8 7 7 7 7 8 9 9 10 10 11 11 11 11 11 10 9 8 7 7 7 8 8 9 9 10 10 11 11 11 10 10 10 9 10 10 10 9 9 9 10 11 11 12 12 11 nan
nan 8 8 8 8 9 11 11 10 10 10 11 11 11 11 10 9 8 9 9 9 10 11 11 10 9 9 7 2 -2 -0 4 6 7 9 9 9 8 8 7 7 7 7 7 8 9 10 10 10 11 11 11 11 11 10 8 7 7 7 7 7 8 9 10 10 11 11 11 10 10 9 9 10 10 10 10 10 10 10 11 12 12 12 11 10 nan
nan 8 9 9 9 9 11 11 10 12 13 11 10 11 10 10 9 9 9 10 11 11 11 11 10 10 9 5 0 -1 1 3 4 6 8 8 8 8 7 7 7 6 7 7 8 9 10 10 10 11 11 12 11 11 10 8 7 6 6 7 8 9 9 10 10 10 11 10 10 9 9 10 10 10 10 10 10 11 11 12 12 11 11 10 10 nan
nan 9 10 10 11 11 10 9 10 13 13 10 9 10 9 9 10 10 10 10 10 10 10 10 11 11 9 6 2 2 3 3 4 5 6 7 8 8 7 7 6 6 6 7 8 9 10 10 10 11 11 12 12 11 10 8 7 6 6 7 8 9 10 10 10 10 10 9 9 9 9 10 10 10 10 10 10 11 12 12 11 10 10 10 10 nan
nan 9 9 10 12 12 11 10 9 10 12 11 9 9 9 10 11 12 11 10 10 9 9 10 12 12 11 8 7 6 5 6 7 6 5 6 6 7 6 6 6 6 6 7 8 9 9 10 10 10 11 11 11 11 10 8 7 6 6 7 8 9 10 10 10 10 9 9 9 9 9 10 10 10 10 10 10 11 12 11 10 10 10 10 9 nan
nan 8 9 10 10 11 12 10 9 9 10 11 10 8 8 10 12 13 12 11 10 9 8 8 10 12 12 11 9 7 5 6 8 7 7 7 4 2 3 5 5 5 5 7 8 9 9 9 9 10 10 11 11 11 10 8 7 6 6 7 8 9 10 10 10 10 9 9 9 9 10 10 10 10 10 10 10 11 10 10 10 10 11 10 9 nan
nan 8 9 9 10 10 10 8 8 8 9 11 10 9 7 7 9 11 12 12 10 10 8 7 8 11 12 11 9 7 6 4 4 5 7 7 4 4 6 7 5 3 4 7 7 8 9 9 8 9 10 10 10 10 9 8 7 6 6 8 9 10 10 11 10 10 10 9 9 9 10 10 10 10 10 10 10 10 9 9 9 10 11 10 9 nan
nan 8 9 10 10 10 10 9 8 7 8 11 11 10 7 6 6 7 8 9 10 11 10 9 10 11 12 10 8 7 9 9 7 5 6 7 7 9 10 9 7 5 7 8 8 8 7 8 8 9 10 10 10 10 9 8 7 6 7 8 9 10 10 11 10 10 10 9 9 9 10 10 10 10 9 10 10 9 9 9 10 10 11 9 8 nan
nan 9 10 10 10 10 10 11 10 9 9 10 10 10 8 8 8 8 6 5 6 8 10 12 13 13 12 9 8 8 9 11 11 11 10 10 10 11 12 11 10 10 11 11 9 7 5 7 8 10 10 9 9 9 9 8 6 6 8 8 9 10 11 11 10 10 10 9 9 9 10 10 9 10 10 10 10 9 9 9 10 10 10 9 8 nan
nan 10 10 10 10 9 9 10 11 11 9 9 8 8 8 9 9 9 7 6 6 7 9 11 13 13 12 9 7 6 7 9 11 12 12 12 12 12 11 11 11 12 12 12 10 4 1 6 10 10 9 9 8 8 8 8 7 7 8 9 9 10 11 11 10 10 10 9 9 9 10 10 9 9 10 10 10 9 9 10 10 10 9 8 9 nan
nan 10 11 10 9 9 9 10 9 9 9 9 8 8 8 8 8 8 8 8 9 10 10 10 12 13 11 8 7 4 5 8 10 11 10 11 12 11 10 9 10 11 11 11 9 2 3 11 12 7 6 9 9 9 9 7 7 7 8 9 10 10 10 10 10 10 10 10 10 10 9 9 9 10 10 10 10 9 10 10 10 9 8 8 10 nan
nan 11 11 10 9 9 9 9 8 8 9 9 9 9 10 8 7 7 8 9 11 12 12 14 16 15 12 9 8 5 6 8 9 8 9 11 12 12 10 8 9 9 10 9 8 4 8 14 13 8 5 4 5 6 6 6 5 7 9 9 10 10 10 10 10 10 9 10 10 10 10 9 10 10 10 10 10 10 10 10 10 9 8 8 11 nan
nan 10 10 9 9 10 9 9 8 8 9 9 9 8 8 8 8 8 8 9 10 11 10 13 16 18 15 11 8 6 7 9 10 8 9 11 12 12 9 7 8 9 9 9 9 9 10 10 9 8 3 -2 0 3 7 8 6 8 9 9 10 10 10 10 10 10 10 10 10 10 9 9 10 10 10 10 10 10 10 10 10 9 8 10 12 nan
nan 10 9 9 9 10 10 10 9 8 9 10 10 9 7 7 8 9 8 8 10 11 9 9 11 12 12 11 8 4 6 10 10 9 10 11 12 11 8 5 6 8 10 10 10 9 9 9 9 8 -0 -5 -1 5 9 9 8 8 9 10 10 10 10 10 10 10 10 10 10 10 9 9 10 10 10 10 10 10 10 10 10 9 8 10 13 nan
nan 9 9 8 9 10 10 10 10 10 10 10 10 9 9 9 9 9 8 8 8 9 9 10 9 7 6 6 7 4 6 10 10 10 11 11 12 11 7 5 6 8 9 10 11 10 9 8 5 2 -7 -7 2 7 9 9 9 9 10 10 10 10 10 10 10 10 10 10 10 9 9 9 10 10 10 10 10 10 11 10 9 9 9 12 13 nan
nan 9 8 8 9 9 10 10 10 10 9 9 8 8 10 11 11 10 9 8 8 8 9 9 10 9 7 5 4 5 8 10 11 11 10 11 12 11 7 4 6 9 11 11 11 10 9 6 0 -3 -3 2 6 8 9 9 9 10 10 10 10 10 10 10 10 10 10 10 10 10 9 10 10 10 10 10 10 10 11 10 10 9 10 13 13 nan
nan 10 8 9 9 9 10 12 12 11 9 9 8 8 8 10 11 10 10 10 10 9 9 9 9 9 9 6 6 6 8 12 12 12 11 11 11 10 6 4 7 10 12 12 11 9 8 7 5 2 2 5 6 7 8 9 10 10 10 10 10 10 10 10 10 10 10 10 9 10 10 10 10 10 10 10 11 11 11 10 10 10 11 12 12 nan
nan 12 11 9 7 6 8 12 13 13 11 8 7 7 7 9 9 9 10 10 10 10 9 8 8 9 8 6 7 7 10 12 12 13 12 11 10 8 6 5 7 9 11 11 10 9 9 10 10 6 -1 -2 2 5 8 9 10 10 10 10 10 10 11 10 10 10 10 9 10 10 10 10 11 11 11 11 11 11 11 10 10 10 12 13 11 nan
nan 13 14 10 5 3 6 10 11 11 10 7 6 6 8 9 9 9 10 10 10 9 8 7 7 8 8 8 8 9 12 13 12 11 11 8 7 7 7 6 8 9 11 11 9 9 10 12 10 4 -3 -4 1 5 7 9 10 10 10 10 10 10 11 11 11 10 10 9 10 10 10 11 11 11 11 11 11 11 11 10 10 11 12 13 11 nan
nan 12 15 11 7 4 6 8 9 10 10 9 8 8 9 9 9 9 11 11 9 9 8 8 9 11 12 11 10 9 10 12 12 10 8 6 7 8 7 7 8 10 10 10 8 9 11 12 10 6 -1 -3 2 4 6 8 9 9 9 10 10 10 11 11 11 11 10 10 10 10 10 10 11 11 11 11 12 12 11 10 10 11 13 13 11 nan
nan 10 12 11 9 6 7 10 12 13 13 11 10 9 9 8 9 11 13 11 10 8 8 10 13 16 16 14 10 8 9 11 10 9 8 8 8 8 7 7 7 9 10 10 9 10 12 13 12 11 4 -3 -0 1 4 6 7 8 9 10 10 10 11 11 11 11 10 10 10 10 10 10 10 11 11 12 12 12 11 10 11 11 13 13 12 nan
nan 12 14 16 17 15 14 17 19 18 16 14 12 10 9 9 10 11 11 11 10 9 10 11 13 15 15 14 12 10 9 10 10 8 8 9 9 9 8 7 7 8 10 11 11 12 13 13 12 12 6 -1 -4 -2 1 4 6 8 9 9 10 11 11 11 11 10 10 10 10 10 10 10 10 10 11 12 12 12 11 10 11 12 14 14 13 nan
nan 21 21 21 20 18 17 20 21 21 19 18 16 14 12 13 12 10 8 8 8 9 12 13 13 13 13 11 10 11 11 11 10 7 7 9 9 10 9 7 7 8 10 12 12 12 12 12 11 11 7 3 -3 -4 -2 2 5 7 8 9 10 10 11 11 11 10 10 10 10 9 9 9 10 10 11 11 12 12 11 11 12 13 15 16 15 nan
nan 19 18 17 16 14 13 13 14 15 17 19 19 19 18 16 13 9 7 7 8 10 12 12 11 11 11 10 9 10 11 11 9 6 5 8 10 10 8 6 6 8 12 14 12 10 11 13 11 9 9 7 2 -7 -6 1 4 6 8 9 9 10 10 10 10 10 9 9 9 9 9 9 9 10 11 11 12 12 11 12 13 16 18 20 19 nan
nan 9 9 9 9 9 9 8 8 9 11 13 15 20 22 18 13 9 8 10 11 11 11 10 10 11 10 9 10 10 10 9 8 7 7 9 10 9 7 7 7 9 13 15 14 13 16 15 12 9 7 6 4 -1 -3 1 5 7 7 8 8 10 10 9 9 9 9 9 9 8 8 9 9 10 11 11 11 12 11 12 16 20 24 25 23 nan
nan 2 2 2 3 3 4 4 5 7 9 11 13 16 20 17 12 10 9 10 10 10 10 10 11 11 10 10 11 12 10 8 7 7 9 11 11 9 7 8 8 10 13 16 17 18 18 15 11 8 4 3 8 8 5 4 8 9 6 5 9 9 8 8 8 9 8 8 8 8 8 9 10 10 11 12 12 12 11 14 20 26 27 22 18 nan
nan -1 -2 -2 -0 2 3 3 1 1 4 8 11 15 18 16 11 10 10 9 9 9 9 10 11 11 11 12 14 13 10 8 7 7 10 12 11 8 8 9 9 10 12 15 16 15 14 13 10 6 3 5 11 13 10 9 10 10 6 5 9 7 5 6 8 9 9 8 8 8 8 9 10 11 12 12 12 12 11 16 25 30 24 15 13 nan
nan 4 3 2 3 4 6 6 3 0 -0 3 7 11 15 15 12 10 10 10 9 9 9 10 10 10 11 13 13 12 9 6 4 7 11 12 10 8 8 9 10 11 11 12 12 11 10 10 8 6 6 10 12 12 10 10 10 11 9 9 9 3 0 6 10 11 10 8 8 7 9 10 10 11 12 12 12 12 11 15 23 29 22 13 11 nan
nan 8 8 8 8 8 9 8 7 5 4 4 5 6 9 12 13 13 13 11 10 10 10 9 10 11 12 12 11 9 7 3 -0 5 13 15 12 9 8 8 9 11 11 10 10 10 9 8 6 6 7 11 12 11 9 9 10 9 9 12 11 2 2 10 13 15 12 8 8 9 9 9 10 10 11 11 11 11 10 13 19 25 21 14 11 nan
nan 9 9 10 11 11 10 10 10 9 8 8 7 7 7 8 9 13 15 13 12 11 10 9 10 11 12 13 11 9 7 3 -2 2 13 18 13 10 8 7 8 10 11 11 11 11 9 7 6 6 7 10 11 10 8 7 9 9 11 12 11 6 7 13 15 15 11 11 12 11 9 10 10 9 9 10 10 9 8 9 14 18 19 16 12 nan
nan 10 10 11 12 12 11 11 11 10 9 9 9 9 9 8 8 9 12 14 13 12 11 9 9 10 11 12 11 10 9 4 -1 2 13 18 14 11 8 8 8 9 11 12 12 13 11 7 6 6 8 10 11 11 9 7 8 12 12 11 11 8 9 12 13 12 11 14 16 13 12 11 8 8 8 8 7 6 5 6 9 11 17 18 14 nan
nan 9 10 11 12 12 11 11 11 10 9 9 9 9 10 10 10 9 10 12 13 14 13 12 11 10 10 10 9 9 9 5 1 4 12 17 14 12 9 8 7 8 10 11 11 12 10 7 6 8 9 10 11 11 9 8 9 12 12 11 11 10 9 9 10 11 12 14 14 14 14 11 9 7 4 2 2 3 4 7 8 9 13 15 16 nan
nan 9 10 11 11 11 10 10 10 10 10 10 9 8 9 10 10 10 10 10 10 11 13 14 14 14 12 10 8 7 7 6 3 5 11 15 13 11 10 8 7 8 9 10 10 10 9 8 8 9 11 12 12 10 8 8 10 12 12 13 13 11 10 9 10 11 11 10 11 12 12 10 9 8 1 -3 2 5 8 9 10 11 12 13 15 nan
nan 9 9 11 10 9 9 10 9 9 9 10 9 8 9 10 10 11 11 10 10 9 9 12 15 15 15 12 9 6 5 4 4 5 9 14 13 12 10 8 7 8 9 8 9 9 10 10 10 11 12 11 9 6 5 8 10 11 13 13 13 13 11 9 9 10 9 8 10 10 10 10 9 8 3 3 10 13 13 14 14 13 13 15 14 nan
nan 9 9 10 10 9 9 9 9 9 9 9 9 9 10 10 10 11 11 10 10 10 10 11 11 11 14 15 13 9 7 6 6 6 10 14 14 11 9 7 8 10 10 9 9 9 9 9 9 11 11 9 6 5 7 9 8 10 12 13 14 13 11 9 9 9 9 8 9 9 11 12 12 11 9 13 16 16 15 13 11 10 15 18 15 nan
nan 9 9 10 10 10 9 8 8 8 9 9 9 10 10 11 12 13 12 11 11 11 11 11 11 12 14 14 13 11 11 11 11 11 14 16 14 12 9 8 9 10 12 13 11 9 8 8 8 7 7 7 7 8 10 8 7 8 11 14 14 12 9 8 8 8 9 9 9 10 13 13 11 11 12 13 12 11 11 11 9 11 17 18 14 nan
nan 9 8 9 11 10 9 8 9 9 9 9 10 11 12 13 13 13 11 10 11 12 12 13 14 14 14 13 11 10 12 12 12 14 16 15 13 11 9 7 8 9 12 13 12 10 8 7 7 7 7 6 6 6 7 6 5 5 12 16 12 6 7 10 9 9 9 9 9 10 11 10 9 9 10 11 10 10 11 10 9 9 14 17 16 nan
nan 9 8 9 9 9 10 10 10 10 11 12 11 11 11 12 12 12 11 11 11 12 11 11 15 15 14 12 11 10 10 10 10 13 14 12 11 9 7 7 8 9 11 12 11 10 9 8 8 9 9 8 7 7 7 4 3 6 14 16 11 7 7 10 11 10 9 9 9 8 8 9 10 11 11 11 12 11 10 9 8 8 13 16 13 nan
nan 11 10 9 9 10 10 10 10 12 13 13 11 10 10 11 12 12 11 11 11 11 11 11 12 12 13 12 12 11 11 11 11 12 14 14 12 10 8 7 8 9 11 11 11 11 11 10 8 8 8 9 9 9 6 4 6 9 13 12 11 13 15 13 12 8 7 9 9 7 9 12 11 10 11 13 13 11 9 8 7 8 14 15 13 nan
nan 10 11 10 10 10 10 11 12 12 13 12 10 10 10 10 10 11 12 11 9 9 11 12 12 12 12 11 11 11 13 14 13 13 16 17 16 12 9 10 10 10 9 9 10 12 14 13 11 10 10 10 9 6 3 5 8 10 9 9 12 18 17 10 7 6 8 9 10 9 10 11 11 11 13 14 14 11 10 8 9 12 15 15 13 nan
nan 10 10 11 11 11 12 11 11 11 11 11 10 10 10 9 10 11 12 11 9 9 11 13 13 12 10 10 11 11 12 14 15 15 14 13 15 16 14 15 16 14 9 6 6 9 12 14 14 14 14 12 9 5 4 6 7 9 8 8 12 15 11 5 4 7 10 10 9 8 8 10 12 14 15 14 13 11 11 11 12 11 12 13 12 nan
nan 9 10 10 11 11 11 10 10 11 11 10 10 9 9 10 10 11 12 11 9 10 11 13 14 12 10 10 13 12 12 13 14 15 10 6 8 15 19 17 17 16 11 7 7 7 8 9 11 12 14 12 10 6 3 4 7 8 7 9 12 13 11 8 8 9 9 9 8 7 7 11 13 14 14 12 12 12 10 9 9 10 11 12 11 nan
nan 10 10 10 9 8 9 11 12 12 11 10 10 9 11 11 11 9 10 11 11 10 11 13 12 11 9 10 12 12 12 12 12 11 10 10 11 12 12 13 14 15 15 14 12 10 8 8 9 9 9 11 11 8 5 4 8 9 8 9 12 13 12 10 10 9 9 9 8 7 8 12 14 13 10 10 12 13 12 11 10 10 10 10 10 nan
nan 10 11 11 10 10 10 11 12 12 11 10 10 9 11 12 12 11 10 10 11 11 12 13 12 9 9 10 9 9 9 10 11 11 10 10 11 12 11 10 12 15 16 16 17 15 12 11 11 9 6 6 7 7 7 7 9 10 10 10 11 12 12 10 9 9 10 9 7 6 10 15 14 11 9 10 12 13 12 11 11 11 10 10 10 nan
nan 10 11 11 11 11 11 12 12 11 11 11 10 9 9 9 11 15 12 9 11 11 12 12 11 10 10 10 9 8 9 10 10 11 10 10 11 11 12 12 13 14 15 15 17 19 20 18 14 9 3 1 1 1 5 8 9 11 11 10 11 11 10 9 9 9 9 8 7 8 13 14 12 10 10 11 11 10 9 10 12 13 11 10 11 nan
nan 9 10 11 11 11 11 11 11 11 11 11 11 10 8 6 7 14 14 11 11 11 10 9 10 10 10 10 9 8 9 11 11 10 9 10 10 11 11 11 12 14 14 14 16 18 20 21 17 12 3 -3 -4 -1 4 8 10 12 12 11 11 11 10 9 9 9 9 8 8 11 14 14 12 10 10 9 8 7 9 12 12 12 11 12 11 nan
nan 9 10 11 11 11 11 11 11 11 11 11 11 11 10 10 9 10 12 11 12 11 10 9 9 9 9 10 9 9 10 11 11 10 10 10 10 10 10 10 11 13 13 13 13 14 16 19 22 23 8 -6 -4 5 9 9 10 11 11 11 11 10 10 9 9 8 8 9 10 11 13 13 12 12 11 9 8 9 11 12 11 10 11 12 11 nan
nan nan nan nan nan nan nan nan nan nan nan nan nan nan nan nan nan nan nan nan nan nan nan nan nan nan nan nan nan nan nan nan nan nan nan nan nan nan nan nan nan nan nan nan nan nan nan nan nan nan nan nan nan nan nan nan nan nan nan nan nan nan nan nan nan nan nan nan nan nan nan nan nan nan nan nan nan nan nan nan nan nan nan nan nan nan
CAPE
nan nan nan nan nan nan nan nan nan nan nan nan nan nan nan nan nan nan nan nan nan nan nan nan nan nan nan nan nan nan nan nan nan nan nan nan nan nan nan nan nan nan nan nan nan nan nan nan nan 0 3 6 9 9 11 14 14 18 24 34 34 45 53 63 63 72 79 90 95 95 103 111 118 118 130 139 134 134 123 114 114 118 129 146 146 162
nan nan nan nan nan nan nan nan nan nan nan nan nan nan nan nan nan nan nan nan nan nan nan nan nan nan nan nan nan nan nan nan nan nan nan nan nan nan nan nan nan nan nan nan nan nan nan nan nan 1 4 7 10 10 11 15 15 19 26 34 34 43 51 60 60 69 80 96 97 97 103 111 118 118 123 124 115 115 108 107 107 121 141 157 157 170
nan nan nan nan nan nan nan nan nan nan nan nan nan nan nan nan nan nan nan nan nan nan nan nan nan nan nan nan nan nan nan nan nan nan nan nan nan nan nan nan nan nan nan nan nan nan nan 0 0 2 6 8 10 10 12 15 15 22 29 35 35 41 48 55 55 65 80 97 100 100 102 103 110 110 113 109 104 104 105 116 116 139 158 173 173 181
nan nan nan nan nan nan nan nan nan nan nan nan nan nan nan nan nan nan nan nan nan nan nan nan nan nan nan nan nan nan nan nan nan nan nan nan nan nan nan nan nan nan nan nan nan nan nan 1 1 4 7 9 11 11 13 17 17 25 32 39 39 43 47 53 53 65 78 93 98 98 99 97 97 97 100 99 102 102 116 133 133 158 167 176 176 172
nan nan nan nan nan nan nan nan nan nan nan nan nan nan nan nan nan nan nan nan nan nan nan nan nan nan nan nan nan nan nan nan nan nan nan nan nan nan nan nan nan nan nan nan nan nan 0 2 2 5 8 10 12 12 15 19 19 26 34 41 41 46 49 54 54 64 74 84 84 84 87 88 91 91 93 104 114 114 132 151 151 166 166 163 163 152
nan nan nan nan nan nan nan nan nan nan nan nan nan nan nan nan nan nan nan nan nan nan nan nan nan nan nan nan nan nan nan nan nan nan nan nan nan nan nan nan nan nan nan nan nan nan 0 2 2 6 9 11 13 13 14 18 18 28 36 43 43 47 53 56 56 63 73 77 81 81 84 87 93 93 101 106 118 118 135 161 161 170 164 149 149 142
nan nan nan nan nan nan nan nan nan nan nan nan nan nan nan nan nan nan nan nan nan nan nan nan nan nan nan nan nan nan nan nan nan nan nan nan nan nan nan nan nan nan nan nan nan nan 0 3 3 7 9 10 12 12 15 20 20 29 37 46 46 52 58 59 59 66 69 68 77 77 86 89 95 95 100 109 121 121 139 159 159 166 151 139 139 144
nan nan nan nan nan nan nan nan nan nan nan nan nan nan nan nan nan nan nan nan nan nan nan nan nan nan nan nan nan nan nan nan nan nan nan nan nan nan nan nan nan nan nan nan nan nan 0 2 2 5 7 8 10 10 15 19 19 29 39 48 48 57 62 65 65 64 64 66 75 75 79 86 90 90 96 111 126 126 131 131 131 130 122 129 129 155
nan nan nan nan nan nan nan nan nan nan nan nan nan nan nan nan nan nan nan nan nan nan nan nan nan nan nan nan nan nan nan nan nan nan nan nan nan nan nan nan nan nan nan nan nan nan nan 1 1 4 5 5 6 6 11 18 18 31 43 52 52 58 63 66 66 65 63 65 75 75 82 90 89 89 91 100 112 112 118 116 116 111 109 118 118 153
nan nan nan nan nan nan nan nan nan nan nan nan nan nan nan nan nan nan nan nan nan nan nan nan nan nan nan nan nan nan nan nan nan nan nan nan nan nan nan nan nan nan nan nan nan nan nan 0 0 2 1 1 3 3 8 18 18 31 45 50 50 55 62 66 66 63 63 64 74 74 83 90 91 91 92 97 107 107 104 104 104 97 95 104 104 139
nan nan nan nan nan nan nan nan nan nan nan nan nan nan nan nan nan nan nan nan nan nan nan nan nan nan nan nan nan nan nan nan nan nan nan nan nan nan nan nan nan nan nan nan nan nan nan nan nan 0 nan nan 0 0 5 17 17 34 44 50 50 56 61 62 62 60 62 63 72 72 80 90 91 91 91 100 102 102 102 100 100 94 91 90 90 130
nan nan nan nan nan nan nan nan nan nan nan nan nan nan nan nan nan nan nan nan nan nan nan nan nan nan nan nan nan nan nan nan nan nan nan nan nan nan nan nan nan nan nan nan nan nan nan nan nan nan nan nan nan nan 5 17 17 35 46 50 50 54 57 56 56 56 58 62 70 70 80 85 84 84 89 96 98 98 100 101 101 96 87 88 88 126
nan nan nan nan nan nan nan nan nan nan nan nan nan nan nan nan nan nan nan nan nan nan nan nan nan nan nan nan nan nan nan nan nan nan nan nan nan nan nan nan nan nan nan nan nan nan nan nan nan nan nan nan nan nan 7 21 21 37 43 49 49 53 55 51 51 51 54 59 67 67 73 83 86 86 91 95 95 95 98 98 98 94 84 85 85 133
nan nan nan nan nan nan nan nan nan nan nan nan nan nan nan nan nan nan nan nan nan nan nan nan nan nan nan nan nan nan nan nan nan nan nan nan nan nan nan nan nan nan nan nan nan nan nan nan nan nan nan nan nan nan 11 25 25 38 45 50 50 51 50 50 50 49 51 56 65 65 74 78 86 86 93 95 99 99 99 97 97 90 89 98 98 140
nan nan nan nan nan nan nan nan nan nan nan nan nan nan nan nan nan nan nan nan nan nan nan nan nan nan nan nan nan nan nan nan nan nan nan nan nan nan nan nan nan nan nan nan nan nan nan nan nan nan nan nan nan nan 11 24 24 41 42 48 48 49 47 47 47 46 52 56 62 62 69 75 86 86 91 100 101 101 97 99 99 89 83 110 110 145
nan nan nan nan nan nan nan nan nan nan nan nan nan nan nan nan nan nan nan nan nan nan nan nan nan nan nan nan nan nan nan nan nan nan nan nan nan nan nan nan nan nan nan nan nan nan nan nan nan nan nan nan 7 7 16 26 26 38 41 45 45 46 44 45 45 48 51 54 61 61 64 73 86 86 91 99 101 101 99 96 96 89 90 115 115 149
nan nan nan nan nan nan nan nan nan nan nan nan nan nan nan nan nan nan nan nan nan nan nan nan nan nan nan nan nan nan nan nan nan nan nan nan nan nan nan nan nan nan nan nan nan nan nan nan nan nan nan 0 11 11 17 24 24 31 38 44 44 43 40 41 41 44 50 55 59 59 62 72 83 83 92 98 98 98 95 93 93 90 93 126 126 139
nan nan nan nan nan nan nan nan nan nan nan nan nan nan nan nan nan nan nan nan nan nan nan nan nan nan nan nan nan nan nan nan nan nan nan nan nan nan nan nan nan nan nan nan nan nan nan nan nan nan nan 4 12 12 18 24 24 31 37 40 40 39 38 40 40 41 47 55 58 58 61 69 83 83 88 91 91 91 95 93 93 96 102 134 134 133
nan nan nan nan nan nan nan nan nan nan nan nan nan nan nan nan nan nan nan nan nan nan nan nan nan nan nan nan nan nan nan nan nan nan nan nan nan nan nan nan nan nan nan nan nan nan nan nan nan nan nan 4 13 13 19 24 24 30 35 39 39 38 37 37 37 38 44 51 57 57 61 71 80 80 86 88 90 90 91 94 94 94 108 130 130 118
nan nan nan nan nan nan nan nan nan nan nan nan nan nan nan nan nan nan nan nan nan nan nan nan nan nan nan nan nan nan nan nan nan nan nan nan nan nan nan nan nan nan nan nan nan nan nan nan nan nan nan 2 14 14 20 26 26 29 32 35 35 36 36 36 36 39 42 47 55 55 60 68 77 77 80 89 86 86 89 89 89 97 111 133 133 107
nan nan nan nan nan nan nan nan nan nan nan nan nan nan nan nan nan nan nan nan nan nan nan nan nan nan nan nan nan nan nan nan nan nan nan nan nan nan nan nan nan nan nan nan nan nan nan nan nan nan nan 3 14 14 20 27 27 29 32 33 33 35 33 35 35 37 39 47 52 52 57 65 72 72 78 81 85 85 84 87 87 97 112 115 115 91
nan nan nan nan nan nan nan nan nan nan nan nan nan nan nan nan nan nan nan nan nan nan nan nan nan nan nan nan nan nan nan nan nan nan nan nan nan nan nan nan nan nan nan nan nan nan nan nan nan nan nan 6 12 12 18 25 25 28 32 33 33 32 31 33 33 34 35 44 51 51 57 67 69 69 77 78 82 82 82 84 84 97 109 112 112 79
nan nan nan nan nan nan nan nan nan nan nan nan nan nan nan nan nan nan nan nan nan nan nan nan nan nan nan nan nan nan nan nan nan nan nan nan nan nan nan nan nan nan nan nan nan nan nan nan nan nan nan 3 6 6 15 22 22 26 29 29 29 28 29 28 28 30 35 41 49 49 57 64 68 68 69 73 77 77 79 83 83 97 105 97 97 71
nan nan nan nan nan nan nan nan nan nan nan nan nan nan nan nan nan nan nan nan nan nan nan nan nan nan nan nan nan nan nan nan nan nan nan nan nan nan nan nan nan nan nan nan nan nan nan nan nan nan nan nan 2 2 10 20 20 24 24 26 26 25 26 26 26 25 31 38 47 47 55 61 62 62 66 69 71 71 76 80 80 96 101 88 88 67
nan nan nan nan nan nan nan nan nan nan nan nan nan nan nan nan nan nan nan nan nan nan nan nan nan nan nan nan nan nan nan nan nan nan nan nan nan nan nan nan nan nan nan nan nan nan nan nan nan nan nan nan nan nan 6 14 14 19 19 20 20 19 20 22 22 23 28 38 45 45 52 58 61 61 61 64 66 66 69 75 75 89 90 78 78 60
nan nan nan nan nan nan nan nan nan nan nan nan nan nan nan nan nan nan nan nan nan nan nan nan nan nan nan nan nan nan nan nan nan nan nan nan nan nan nan nan nan nan nan nan nan nan nan nan nan nan nan nan nan nan 3 10 10 13 13 14 14 15 15 17 17 22 27 35 42 42 47 52 55 55 56 59 58 58 63 69 69 81 77 65 65 55
nan nan nan nan nan nan nan nan nan nan nan nan nan nan nan nan nan nan nan nan nan nan nan nan nan nan nan nan nan nan nan nan nan nan nan nan nan nan nan nan nan nan nan nan nan nan nan nan nan nan nan nan nan nan 1 6 6 8 8 8 8 10 12 15 15 22 26 35 41 41 47 49 51 51 50 52 53 53 56 65 65 67 64 54 54 44
nan nan nan nan nan nan nan nan nan nan nan nan nan nan nan nan nan nan nan nan nan nan nan nan nan nan nan nan nan nan nan nan nan nan nan nan nan nan nan nan nan nan nan nan nan nan nan nan nan nan nan nan nan nan nan 3 3 3 3 3 3 5 7 12 12 19 27 34 39 39 42 46 48 48 45 47 48 48 51 59 59 58 50 21 21 nan
nan nan nan nan nan nan nan nan nan nan nan nan nan nan nan nan nan nan nan nan nan nan nan nan nan nan nan nan nan nan nan nan nan nan nan nan nan nan nan nan nan nan nan nan nan nan nan nan nan nan nan nan nan nan nan nan nan 0 0 0 0 1 4 10 10 18 26 31 37 37 42 43 46 46 45 44 47 47 48 52 52 50 35 0 0 nan
nan nan nan nan nan nan nan nan nan nan nan nan nan nan nan nan nan nan nan nan nan nan nan nan nan nan nan nan nan nan nan nan nan nan nan nan nan nan nan nan nan nan nan nan nan nan nan nan nan nan nan nan nan nan nan nan nan nan nan nan nan nan 1 6 6 16 22 28 33 33 37 42 40 40 39 42 44 44 46 49 49 41 10 nan nan nan
nan nan nan nan nan nan nan nan nan nan nan nan nan nan nan nan nan nan nan nan nan nan nan nan nan nan nan nan nan nan nan nan nan nan nan nan nan nan nan nan nan nan nan nan nan nan nan nan nan nan nan nan nan nan nan nan nan nan nan nan nan nan nan 4 4 11 18 24 29 29 34 35 37 37 36 39 40 40 42 47 47 33 nan nan nan nan
nan nan nan nan nan nan nan nan nan nan nan nan nan nan nan nan nan nan nan nan nan nan nan nan nan nan nan nan nan nan nan nan nan nan nan nan nan nan nan nan nan nan nan nan nan nan nan nan nan nan nan nan nan nan nan nan nan nan nan nan nan nan nan nan nan nan 1 10 15 15 19 20 23 23 26 27 31 31 36 36 36 33 5 nan nan nan
nan nan nan nan nan nan nan nan nan nan nan nan nan nan nan nan nan nan nan nan nan nan nan nan nan nan nan nan nan nan nan nan nan nan 4 nan nan nan nan nan nan nan nan nan nan nan nan nan nan nan nan nan nan nan nan nan nan nan nan nan nan nan nan nan nan nan nan nan nan nan 8 9 17 17 19 24 26 26 28 31 31 32 24 nan nan nan
nan nan nan nan nan nan nan nan nan nan nan nan nan nan nan nan nan nan nan nan nan nan nan nan nan nan nan nan nan nan nan nan 0 0 4 nan nan nan nan nan nan nan nan nan nan nan nan nan nan nan nan nan nan nan nan nan nan nan nan nan nan nan nan nan nan nan nan nan nan nan nan nan 8 8 9 15 18 18 23 24 24 23 24 10 10 2
nan nan nan nan nan nan nan nan nan nan nan nan nan nan nan nan nan nan nan nan nan nan nan nan nan nan nan nan nan nan nan nan nan nan 1 nan nan nan nan nan nan nan nan nan nan nan nan nan nan nan nan nan nan nan nan nan nan nan nan nan nan nan nan nan nan nan nan nan nan nan nan nan nan nan nan 6 13 13 16 17 17 16 15 19 19 12
nan nan nan nan nan nan nan nan nan nan nan nan nan nan nan nan nan nan nan nan nan nan nan nan nan nan nan nan nan nan nan nan nan nan nan nan nan nan nan nan nan nan nan nan nan nan nan nan nan nan nan nan nan nan nan nan nan nan nan nan nan nan nan nan nan nan nan nan nan nan nan nan nan nan nan 7 9 9 9 7 7 6 9 12 12 13
nan nan nan nan nan nan nan nan nan nan nan nan nan nan nan nan nan nan nan nan nan nan nan nan nan nan nan nan nan nan nan nan nan nan nan nan nan nan nan nan nan nan nan nan nan nan nan nan nan nan nan nan nan nan nan nan nan nan nan nan nan nan nan nan nan nan nan nan nan nan nan 0 nan nan 0 7 1 1 1 2 2 2 5 6 6 9
nan nan nan nan nan nan nan nan nan nan nan nan nan nan nan nan nan nan nan nan nan nan nan nan nan nan nan nan nan nan nan nan nan nan nan nan nan nan nan nan nan nan nan nan nan nan nan nan nan nan nan nan nan nan nan nan nan nan nan nan nan nan nan nan nan nan nan nan 2 2 4 0 nan nan nan nan nan nan nan nan nan nan 1 1 1 5
nan nan nan nan nan nan nan nan nan nan nan nan nan nan nan nan nan nan nan nan nan nan nan nan nan nan nan nan nan nan nan nan nan nan nan nan nan nan nan nan nan nan nan nan nan nan nan nan nan nan nan nan nan nan nan nan nan nan nan nan nan nan nan nan nan nan nan nan 2 2 1 nan nan nan nan nan nan nan nan nan nan nan nan nan nan 0
nan nan nan nan nan nan nan nan nan nan nan nan nan nan nan nan nan nan nan nan nan nan nan nan nan nan nan nan nan nan nan nan nan nan nan nan nan nan nan nan nan nan nan nan nan nan nan nan nan nan nan nan nan nan nan nan nan nan nan nan nan nan nan nan nan nan nan nan nan nan nan nan nan nan nan nan nan nan nan nan nan nan nan nan nan nan
nan nan nan nan nan nan nan nan nan nan nan nan nan nan nan nan nan nan nan nan nan nan nan nan nan nan nan nan nan nan nan nan nan nan nan nan nan nan nan nan nan nan nan nan nan nan nan nan nan nan nan nan nan nan nan nan nan nan 6 nan nan nan nan nan nan nan nan nan nan nan 0 nan nan nan nan nan nan nan nan nan nan nan nan nan nan nan
nan nan nan nan nan nan nan nan nan nan nan nan nan nan nan nan nan nan nan nan nan nan nan nan nan nan nan nan nan nan nan nan nan nan nan nan nan nan nan nan nan nan nan nan nan nan nan nan nan nan nan nan nan nan nan nan nan nan 0 nan nan nan nan nan nan nan nan nan nan nan 0 nan nan nan nan nan nan nan nan nan nan nan nan nan nan nan
nan nan nan nan nan nan nan nan nan nan nan nan nan nan nan nan nan nan nan nan nan nan nan nan nan nan nan nan nan nan nan nan nan nan nan nan nan nan nan nan nan nan nan nan nan nan nan nan nan nan nan nan nan nan nan nan nan nan nan nan nan nan nan nan nan nan nan nan nan nan nan nan nan nan nan nan nan nan nan nan nan nan nan nan nan nan
nan nan nan nan nan nan nan nan nan nan nan nan nan nan nan nan nan nan nan nan nan nan nan nan nan nan nan nan nan nan nan nan nan nan nan nan nan nan nan nan nan nan nan nan nan nan nan nan nan nan nan nan nan nan nan nan nan nan nan nan nan nan nan nan nan nan nan nan nan nan nan nan nan nan nan nan nan nan nan nan nan nan nan nan nan nan
nan nan nan nan nan nan nan nan nan nan nan nan nan nan nan nan nan nan nan nan nan nan nan nan nan nan nan nan nan nan nan nan nan nan nan nan nan nan nan nan nan nan nan nan nan nan nan nan nan nan nan nan nan nan nan nan nan nan nan 0 0 nan nan nan nan nan nan nan nan nan nan nan nan nan nan nan nan nan nan nan nan nan nan nan nan nan
nan nan nan nan nan nan nan nan nan nan nan nan nan nan nan nan nan nan nan nan nan nan nan nan nan nan nan nan nan nan nan nan nan nan nan nan nan nan nan nan nan nan nan nan nan nan nan nan nan nan nan nan nan nan nan nan nan nan nan nan nan nan nan nan nan nan nan nan nan nan nan nan nan nan nan nan nan nan nan nan nan nan nan nan nan nan
nan nan nan nan nan nan nan nan nan nan nan nan nan nan nan nan nan nan nan nan nan nan nan nan nan nan nan nan nan nan nan nan nan nan nan nan nan nan nan nan nan nan nan nan nan nan nan nan nan nan nan nan nan nan nan nan nan nan nan nan nan nan nan nan nan nan nan nan nan nan nan nan nan nan nan nan nan nan nan nan nan nan nan nan nan nan
nan nan nan nan nan nan nan nan nan nan nan nan nan nan nan nan nan nan nan nan nan nan nan nan nan nan nan nan nan nan nan nan nan nan nan nan nan nan nan nan nan nan nan nan nan nan nan nan nan nan nan nan nan nan nan nan nan nan nan nan nan nan nan nan nan nan nan nan nan nan nan nan nan nan nan nan nan nan nan nan nan nan nan nan nan nan
nan nan nan nan nan nan nan nan nan nan nan nan nan nan nan nan 1 1 nan nan nan nan nan nan nan nan nan nan nan nan nan nan nan nan nan nan nan nan nan nan nan nan nan nan nan nan nan nan nan nan nan nan nan nan nan nan nan nan nan nan nan nan nan nan nan nan nan nan nan nan nan nan nan nan nan nan nan nan nan nan nan nan nan nan nan nan
nan nan nan nan nan nan nan nan nan nan nan nan nan nan nan nan nan nan nan nan nan nan nan nan nan nan nan nan nan nan nan nan nan nan nan nan nan nan nan nan nan nan nan nan nan nan nan nan nan nan nan nan nan nan nan nan nan nan nan nan nan nan nan nan nan nan nan nan nan nan nan nan nan nan nan nan nan nan nan nan nan nan nan nan nan nan
nan nan nan nan nan nan nan nan nan nan nan nan nan nan nan nan nan nan nan nan nan nan nan nan nan nan nan nan nan nan nan nan nan nan nan nan nan nan nan nan nan nan nan nan nan nan nan nan nan nan nan 6 nan nan nan nan nan nan nan nan nan nan nan nan nan nan 1 0 nan nan nan nan 0 0 0 0 nan nan nan nan nan nan nan nan nan nan